sat.trackr.live / text

‹ back to catalog

STARLINK-4727

NORAD 53803 · 2022-111AG

PAYLOAD ACTIVE UNKNOWN

§ Identity

Operator
Country
US
Launch date
2022-09-11
Launch site
AFETR
Launch vehicle
Mass (kg)
RCS (m²)

Purposes: comms

External: N2YO · Heavens-Above · Gunter

§ Orbital elements

Epoch: 2026-05-25T01:09:15.375168Z

Period
95.44 min
Inclination
53.2165°
Eccentricity
0.0000762
Mean motion
15.08836882 rev/d
Perigee alt
539.2 km
Apogee alt
540.3 km
Semi-major
6,917.9 km
B*
3.0674e-5
RAAN
266.3768°
Arg perigee
94.4692°
Mean anomaly
265.6387°
Rev number
20,555

§ Raw data

STARLINK-47271 53803U 22111AG  26145.04809462  .00000201  00000+0  30674-4 0  99932 53803  53.2165 266.3768 0000762  94.4692 265.6387 15.08836882205553

JSON: /api/v1/satellites/53803 · /tle

For live sub-satellite position, see the globe view (requires WebGL).

§ Visibility from observer

Set your observer location to see the next 7 days of passes ≥ 10°. The values pass through the URL so the page stays shareable.

No JS? Fill the form by hand. The geolocation button needs JavaScript.